Date,TemperatureHighF,TemperatureAvgF,TemperatureLowF,DewpointHighF,DewpointAvgF,DewpointLowF,HumidityHigh,HumidityAvg,HumidityLow,PressureMaxIn,PressureMinIn,WindSpeedMaxMPH,WindSpeedAvgMPH,GustSpeedMaxMPH,PrecipitationSumIn
2013-1-1,38.8,36.7,30.2,15.9,11.4,-1.4,40,35,25,0.00,0.00,7,1,11,0.00
2013-1-2,32.5,28.0,22.8,-0.9,-5.6,-10.4,33,23,18,0.00,0.00,11,2,11,0.00
2013-1-3,34.0,26.7,18.5,4.9,-2.8,-7.8,39,28,20,0.00,0.00,11,1,11,0.00
2013-1-4,38.7,33.9,29.7,4.8,0.6,-3.6,31,24,19,0.00,0.00,14,4,14,0.00
2013-1-5,38.7,31.6,24.8,8.0,0.8,-6.5,38,27,19,0.00,0.00,9,2,9,0.00
2013-1-6,46.2,35.6,23.5,21.9,8.9,0.2,56,35,17,0.00,0.00,9,1,14,0.00
2013-1-7,43.7,37.3,23.5,11.8,6.6,-1.0,43,28,18,0.00,0.00,12,2,12,0.00
2013-1-8,46.4,31.0,20.7,20.7,8.1,3.3,54,39,22,0.00,0.00,6,0,6,0.00
2013-1-9,43.7,31.9,22.6,26.8,16.5,7.1,62,53,40,0.00,0.00,5,0,5,0.00
2013-1-10,47.7,38.2,27.5,25.1,11.1,-0.7,69,36,17,0.00,0.00,8,1,8,0.00
2013-1-11,45.1,38.7,30.4,33.7,22.3,11.1,73,52,39,0.00,0.00,7,0,7,0.00
2013-1-12,51.4,43.8,40.5,46.8,37.8,33.7,90,79,65,0.00,0.00,4,0,4,0.00
2013-1-13,47.3,44.9,41.0,45.9,43.1,37.4,95,93,86,0.00,0.00,5,0,6,0.00
2013-1-14,52.7,48.2,40.1,51.3,36.7,15.5,95,69,27,0.00,0.00,8,1,11,0.00
2013-1-15,40.1,37.5,34.0,29.7,20.5,12.4,69,51,35,0.00,0.00,6,1,6,0.00
2013-1-16,36.3,34.6,32.9,33.4,28.6,19.4,89,79,55,0.00,0.00,4,0,6,0.00
2013-1-17,40.5,37.8,35.4,34.5,20.4,11.8,89,52,31,0.00,0.00,8,1,10,0.00
2013-1-18,35.8,30.3,23.7,14.2,-4.0,-12.5,41,23,18,0.00,0.00,11,3,15,0.00
2013-1-19,54.9,35.5,21.9,8.7,1.0,-12.9,34,24,14,0.00,0.00,10,2,11,0.00
2013-1-20,53.6,38.1,27.7,14.2,3.1,-9.8,45,25,13,0.00,0.00,17,3,22,0.00
2013-1-21,34.5,27.9,22.6,5.2,-7.7,-12.9,35,21,17,0.00,0.00,9,2,9,0.00
2013-1-22,23.5,16.7,11.7,-0.7,-16.1,-19.8,35,21,20,0.00,0.00,15,5,20,0.00
2013-1-23,20.3,14.1,9.7,-14.4,-18.3,-21.5,22,21,20,0.00,0.00,13,3,13,0.00
2013-1-24,26.4,19.0,13.8,-10.2,-14.8,-18.6,24,21,19,0.00,0.00,13,2,17,0.00
2013-1-25,21.9,16.0,9.0,-0.4,-11.7,-18.6,44,29,20,0.00,0.00,6,1,9,0.00
2013-1-26,27.3,18.6,12.7,2.8,-1.7,-7.8,52,41,21,0.00,0.00,8,1,8,0.00
2013-1-28,34.5,34.1,33.8,26.8,25.7,24.9,73,71,69,0.00,0.00,0,0,0,0.00
2013-1-29,58.8,44.3,34.5,41.2,33.7,26.8,84,68,45,0.00,0.00,5,0,6,0.00
2013-1-30,64.8,50.2,37.6,56.5,43.2,31.1,93,78,50,0.00,0.00,11,1,13,0.00
2013-1-31,57.7,40.4,27.9,55.8,9.1,-10.1,94,33,16,0.00,0.00,23,6,25,0.00
2013-2-1,29.8,25.5,19.4,-7.3,-11.1,-15.1,21,19,18,0.00,0.00,17,4,19,0.00
2013-2-2,24.6,20.5,14.4,7.2,-8.4,-18.4,48,28,19,0.00,0.00,14,2,14,0.00
2013-2-3,32.7,26.2,18.5,15.5,7.8,-3.4,58,46,29,0.00,0.00,11,1,11,0.00
2013-2-4,32.5,26.1,20.3,1.2,-7.2,-10.9,32,23,18,0.00,0.00,10,3,11,0.00
2013-2-5,34.3,31.3,27.9,18.7,10.5,1.2,57,42,31,0.00,0.00,4,0,4,0.00
2013-2-6,39.4,31.9,25.5,23.0,8.5,-5.6,69,41,18,0.00,0.00,10,1,11,0.00
2013-2-7,35.6,29.2,20.8,5.1,-1.5,-6.4,42,27,17,0.00,0.00,6,1,8,0.00
2013-2-8,38.1,34.8,30.7,27.9,19.3,0.3,78,55,25,0.00,0.00,11,2,11,0.00
2013-2-9,35.4,28.4,23.4,9.7,-2.4,-9.9,41,26,20,0.00,0.00,13,1,13,0.00
2013-2-10,42.6,28.0,15.4,2.7,-3.6,-9.3,40,26,16,0.00,0.00,6,1,6,0.00
2013-2-14,46.4,38.2,30.2,22.9,9.6,1.2,60,32,17,29.77,29.74,8,1,8,0.00
2013-2-15,55.6,39.2,27.1,23.0,11.9,2.5,53,36,15,29.83,29.71,10,2,14,0.00
2013-2-16,36.7,32.7,29.3,27.4,14.3,-6.9,75,49,20,29.80,29.62,9,1,9,0.00
2013-2-17,31.3,26.4,21.0,-6.0,-10.2,-13.8,22,19,18,29.91,29.59,17,5,20,0.00
2013-2-18,38.7,26.9,18.3,-3.7,-10.4,-16.0,20,19,16,30.12,29.91,14,3,14,0.00
2013-2-19,41.0,34.2,25.7,30.9,10.9,-11.0,69,40,18,29.94,29.50,13,2,13,0.00
2013-2-20,34.9,27.9,22.8,4.3,-8.4,-12.9,27,20,18,29.88,29.59,18,6,24,0.00
2013-2-21,37.0,28.6,22.8,-3.7,-9.2,-12.9,21,18,17,30.12,29.88,13,4,14,0.00
2013-2-22,35.2,30.0,23.9,12.6,0.2,-9.4,41,28,20,30.18,30.03,8,1,8,0.00
2013-2-23,45.5,38.5,32.9,37.4,27.5,12.6,81,65,41,30.03,29.62,4,0,5,0.00
2013-2-24,45.7,38.2,31.1,36.3,14.9,-5.3,87,46,17,29.88,29.62,15,3,15,0.00
2013-2-25,49.1,36.7,28.2,5.3,-0.2,-5.9,31,21,14,30.00,29.88,9,2,9,0.00
2013-2-26,44.4,35.4,25.2,30.5,13.1,1.3,76,41,23,30.03,29.53,10,2,14,0.00
2013-2-27,51.8,43.5,37.4,40.2,26.8,12.8,91,58,27,29.53,29.32,12,3,16,0.00
2013-2-28,47.3,40.5,33.4,24.9,12.5,2.2,57,34,17,29.50,29.41,13,2,13,0.00
2013-3-1,43.7,39.3,34.3,16.3,7.2,-0.7,43,27,18,29.65,29.50,10,2,10,0.00
2013-3-2,39.0,34.9,31.8,5.7,-1.0,-4.7,32,21,16,29.68,29.56,11,3,11,0.00
2013-3-3,36.5,32.3,27.7,6.8,-1.5,-5.3,34,23,17,29.65,29.56,12,4,12,0.00
2013-3-4,39.2,31.8,27.5,0.0,-5.3,-7.4,23,20,16,29.83,29.65,13,4,13,0.00
2013-3-5,48.2,36.2,28.6,8.3,1.7,-4.5,31,23,15,29.85,29.71,10,2,10,0.00
2013-3-6,40.3,37.8,34.5,25.8,17.1,7.2,60,44,29,29.80,29.56,13,4,14,0.00
2013-3-7,49.5,40.1,34.9,8.6,2.9,-4.7,31,21,14,29.91,29.80,12,4,15,0.00
2013-3-8,49.3,39.2,32.7,5.3,-1.5,-6.4,23,17,14,30.06,29.88,17,5,19,0.00
2013-3-9,63.5,44.7,32.0,12.6,1.0,-6.7,20,16,13,30.12,30.03,8,1,8,0.00
2013-3-10,62.1,44.4,26.8,12.3,4.3,-5.9,37,20,13,30.12,30.03,10,2,10,0.00
2013-3-11,57.4,47.6,36.9,35.3,24.6,2.3,60,42,19,30.06,29.77,10,2,10,0.00
2013-3-12,56.3,51.0,41.9,52.2,34.3,9.5,86,56,26,29.77,29.53,13,4,13,0.00
2013-3-13,48.6,39.3,29.7,15.7,5.3,-5.7,44,25,14,29.80,29.68,13,3,13,0.00
2013-3-14,43.2,35.5,28.9,-0.4,-4.4,-7.4,23,18,15,29.85,29.77,16,5,17,0.00
2013-3-15,54.5,39.3,23.9,8.4,-1.7,-12.4,21,17,14,29.85,29.56,15,3,17,0.00
2013-3-16,46.0,36.9,32.5,22.0,11.1,-2.0,63,39,17,29.74,29.56,8,1,8,0.00
2013-3-17,39.9,34.4,30.2,22.8,10.6,-4.1,64,41,18,30.09,29.74,6,1,8,0.00
2013-3-18,36.3,32.3,28.4,23.3,5.5,-6.4,66,34,17,30.12,29.71,9,1,10,0.00
2013-3-19,53.8,40.5,33.6,33.3,16.5,-5.3,78,46,13,29.71,29.50,13,3,15,0.00
2013-3-20,47.5,38.8,29.1,1.1,-3.3,-9.1,20,16,14,29.77,29.56,15,3,16,0.00
2013-3-21,37.6,32.7,27.3,-3.6,-6.6,-10.6,18,18,16,29.65,29.53,12,3,13,0.00
2013-3-22,31.5,27.1,25.2,6.7,-5.1,-11.0,40,24,18,29.68,29.62,8,2,8,0.00
2013-3-24,47.1,42.5,27.7,7.1,0.1,-3.7,33,17,14,29.80,29.47,9,1,9,0.00
2013-3-25,38.1,35.5,32.5,25.6,16.1,-0.9,70,48,19,29.50,29.32,8,1,9,0.00
2013-3-26,52.9,40.6,33.3,26.4,15.8,0.4,72,43,13,29.77,29.47,10,2,10,0.00
2013-3-27,51.6,42.0,35.4,12.4,5.5,-0.7,37,23,14,29.85,29.74,15,4,19,0.00
2013-3-28,51.3,41.7,30.6,14.0,4.3,-1.7,40,22,14,30.00,29.83,12,2,12,0.00
2013-3-29,55.0,45.8,35.4,8.4,3.3,-4.7,23,17,13,30.00,29.91,10,2,10,0.00
2013-3-30,60.4,44.0,27.3,15.2,5.4,-4.7,40,22,13,30.00,29.88,9,1,12,0.00
2013-3-31,54.1,43.7,31.5,38.6,15.4,-5.5,71,35,15,29.91,29.53,13,1,13,0.00
2013-4-1,59.0,46.3,36.9,41.6,17.1,-4.7,81,39,14,29.77,29.50,18,3,21,0.00
2013-4-2,46.8,37.1,29.8,1.1,-4.1,-8.6,18,17,14,29.94,29.77,13,3,15,0.00
2013-4-3,48.2,36.7,23.4,1.2,-4.5,-12.8,19,17,14,30.15,29.94,18,3,18,0.00
2013-4-4,54.9,38.9,23.5,8.1,-3.3,-12.6,19,16,13,30.21,29.88,8,2,11,0.00
2013-4-5,65.1,49.9,34.5,15.1,7.4,-1.7,35,19,13,29.88,29.59,13,2,15,0.00
2013-4-10,90.5,73.2,54.9,40.1,24.0,14.9,44,20,7,29.74,29.53,16,2,16,0.00
2013-4-11,62.4,61.6,60.1,46.3,44.4,39.9,58,53,44,29.71,29.59,2,0,3,0.00
2013-4-15,55.2,54.2,53.4,22.8,21.3,19.9,30,27,25,30.09,30.06,6,2,6,0.00
2013-4-16,73.2,60.4,50.9,36.7,28.7,20.4,42,31,14,30.09,29.91,11,2,12,0.00
2013-4-17,73.0,61.5,54.3,44.4,27.1,8.4,61,32,11,30.03,29.88,6,1,8,0.00
2013-4-18,63.5,58.8,54.9,49.0,32.6,8.4,65,41,14,30.06,29.83,8,1,9,0.00
2013-4-19,74.8,64.3,50.7,54.9,46.4,33.8,77,55,27,29.83,29.38,15,3,16,0.00
2013-4-20,58.8,51.1,44.2,35.7,15.7,0.7,59,28,13,30.03,29.56,16,4,16,0.00
2013-4-23,61.2,50.2,42.4,20.4,16.3,9.0,39,27,14,29.94,29.91,8,1,8,0.00
2013-4-24,74.8,55.4,37.2,46.3,26.5,18.5,58,37,13,29.91,29.59,14,2,14,0.00
2013-4-25,64.6,51.4,41.7,23.2,7.9,-0.1,27,17,13,30.09,29.77,13,3,15,0.00
2013-4-26,66.9,51.7,36.7,22.0,10.3,-1.1,40,20,12,30.24,30.09,8,1,10,0.00
2013-4-27,73.2,54.5,35.1,19.1,10.8,0.2,39,19,11,30.24,30.06,8,1,8,0.00
2013-4-28,71.8,50.5,40.1,26.0,14.8,4.1,39,26,11,30.09,30.06,8,1,8,0.00
2013-5-16,82.6,68.3,57.4,44.9,24.7,12.1,62,26,9,29.68,29.53,8,1,8,0.00
2013-5-17,79.3,66.6,51.1,24.5,15.1,9.5,27,14,10,29.94,29.68,9,1,9,0.00
2013-5-18,70.5,63.2,57.9,43.5,23.5,10.3,56,25,12,30.03,29.94,8,1,9,0.00
2013-5-19,66.7,62.3,58.8,55.4,50.0,43.2,74,64,55,30.03,29.91,5,0,5,0.00
2013-5-20,84.4,70.6,61.7,64.8,50.7,32.3,87,55,16,29.94,29.74,6,0,7,0.00
2013-5-21,89.4,75.2,62.2,62.1,47.2,34.5,76,42,15,29.77,29.62,9,1,10,0.00
2013-5-22,94.5,77.4,64.9,61.9,42.3,16.5,72,37,6,29.71,29.56,11,2,13,0.00
2013-5-23,78.6,70.9,63.7,58.0,50.0,40.3,63,48,27,29.68,29.53,9,1,11,0.00
2013-5-24,63.9,57.9,49.5,55.7,41.1,17.6,77,56,23,29.77,29.50,12,2,12,0.00
2013-5-27,61.7,57.9,56.5,12.4,9.9,8.4,17,15,14,29.97,29.94,0,0,0,0.00
2013-5-28,66.7,60.6,55.6,54.0,40.6,12.4,70,50,17,30.00,29.88,6,0,6,0.00
2013-5-29,92.1,74.9,60.1,65.3,40.3,16.6,85,43,7,29.88,29.83,11,1,11,0.00
2013-5-30,94.8,78.6,62.6,57.1,35.3,16.5,63,29,6,29.94,29.85,8,1,8,0.00
2013-5-31,95.5,77.5,64.4,58.5,41.1,16.5,63,35,6,29.91,29.83,8,0,8,0.00
2013-6-2,85.1,78.7,73.6,45.1,37.2,23.8,35,24,11,29.65,29.59,10,2,10,0.00
2013-6-3,83.7,73.3,66.2,58.4,38.0,15.6,68,34,10,29.71,29.59,8,1,8,0.00
2013-6-4,77.4,66.0,54.1,28.9,15.2,7.5,26,14,10,29.91,29.71,8,1,11,0.00
2013-6-5,82.8,67.0,50.2,33.8,19.3,12.1,43,19,9,30.00,29.85,9,1,9,0.00
2013-6-6,72.3,64.8,60.3,52.6,29.8,11.1,65,30,11,29.88,29.71,8,0,9,0.00
2013-6-7,66.6,64.0,61.9,63.0,58.4,50.8,91,82,64,29.71,29.41,8,1,8,0.00
2013-6-8,79.0,68.3,61.0,64.5,49.2,26.6,92,59,15,29.88,29.47,7,1,8,0.00
2013-6-9,84.9,71.0,56.3,52.0,34.4,16.6,70,34,8,29.97,29.85,6,1,8,0.00
2013-6-10,76.5,70.3,65.7,73.0,60.8,42.8,91,74,35,29.91,29.56,8,1,8,0.00
2013-6-11,82.0,72.9,63.3,67.1,47.5,31.7,93,50,17,29.59,29.50,11,2,14,0.00
2013-6-12,85.6,74.2,61.2,54.3,34.8,16.6,65,28,11,29.65,29.59,8,1,10,0.00
2013-6-13,86.9,72.1,61.9,62.4,44.7,25.0,72,41,11,29.62,29.21,10,2,13,0.00
2013-6-14,79.9,67.0,58.1,48.7,30.7,14.4,65,32,10,29.74,29.38,10,2,10,0.00
2013-6-15,83.8,70.0,55.4,46.7,27.4,14.4,59,25,9,29.85,29.74,8,1,8,0.00
2013-6-16,84.4,70.1,58.1,48.8,35.6,16.7,51,32,9,29.80,29.62,13,2,13,0.00
2013-6-17,87.1,73.3,63.5,59.0,47.7,24.7,72,45,11,29.74,29.65,8,1,10,0.00
2013-6-18,75.7,69.0,64.8,67.3,59.4,54.3,82,72,61,29.71,29.59,6,0,6,0.00
2013-6-19,80.4,69.8,61.3,61.0,36.4,14.9,85,40,10,29.94,29.68,6,1,8,0.00
2013-6-20,84.9,69.4,55.8,56.7,35.6,16.6,67,35,9,30.06,29.91,8,1,8,0.00
2013-6-21,86.9,71.8,57.4,50.0,28.2,14.6,61,26,8,30.09,30.00,11,1,11,0.00
2013-6-22,89.6,73.9,58.1,52.1,35.1,20.7,56,28,10,30.03,29.88,10,1,10,0.00
2013-6-23,88.5,77.0,63.9,56.2,44.1,28.1,61,34,13,29.97,29.83,9,0,9,0.00
2013-6-24,95.0,79.3,68.5,62.6,46.6,18.0,68,38,9,29.88,29.77,10,1,10,0.00
2013-6-25,92.5,79.1,66.6,64.2,45.4,22.8,71,38,9,29.80,29.65,9,1,12,0.00
2013-7-7,82.9,72.6,70.7,55.1,49.3,23.0,57,45,11,29.83,29.77,6,1,8,0.00
2013-7-8,88.2,75.6,68.7,61.5,49.5,28.1,69,45,13,29.88,29.80,11,1,11,0.00
2013-7-9,88.3,76.5,70.3,60.3,51.2,39.1,61,43,19,29.85,29.77,10,0,10,0.00
2013-7-10,90.3,78.7,70.0,65.7,52.4,38.9,67,44,17,29.80,29.62,8,1,10,0.00
2013-7-11,86.9,78.4,73.0,57.3,43.2,22.7,56,33,11,29.71,29.62,5,1,6,0.00
2013-7-18,98.8,90.4,82.0,47.7,32.8,24.7,30,14,8,29.80,29.77,4,0,5,0.00
2013-7-19,99.1,84.8,75.7,64.3,45.4,17.9,59,30,8,29.80,29.62,8,1,8,0.00
2013-7-20,92.8,82.4,73.0,55.0,40.0,23.6,48,26,9,29.65,29.56,11,2,11,0.00
2013-7-21,87.8,80.7,72.7,52.3,41.0,29.1,41,26,13,29.74,29.65,6,0,6,0.00
2013-7-22,89.8,78.1,72.1,61.3,52.2,39.4,61,42,18,29.74,29.56,6,1,8,0.00
2013-7-23,88.2,77.5,71.6,69.1,52.0,28.1,79,47,13,29.56,29.41,10,1,10,0.00
2013-7-24,82.4,73.6,64.8,56.1,37.5,14.9,62,32,9,29.74,29.44,8,2,9,0.00
2013-7-25,76.3,66.5,55.9,38.5,31.3,20.1,37,27,18,29.83,29.74,6,1,6,0.00
2013-7-26,85.8,73.1,62.2,47.0,29.9,14.4,50,25,8,29.85,29.80,8,1,8,0.00
2013-7-27,86.2,71.5,60.1,54.6,40.6,28.6,54,35,13,29.83,29.71,9,1,10,0.00
2013-7-28,86.0,74.9,68.0,63.0,49.8,28.2,71,46,13,29.74,29.68,8,1,9,0.00
2013-7-29,83.7,72.4,61.7,57.3,33.9,13.8,63,32,9,29.91,29.74,9,1,9,0.00
2013-7-30,83.3,70.2,57.6,43.5,27.2,14.4,49,24,9,30.00,29.91,8,1,8,0.00
2013-7-31,82.0,71.4,59.2,49.6,38.0,30.4,54,32,17,29.94,29.77,7,0,7,0.00
2013-8-1,80.2,72.1,67.8,64.5,54.7,42.7,71,55,35,29.80,29.59,6,0,6,0.00
2013-8-2,86.4,74.0,63.3,61.8,38.9,14.9,79,39,8,29.74,29.62,10,1,10,0.00
2013-8-3,80.2,70.7,66.2,53.4,45.6,35.0,53,41,22,29.74,29.65,8,1,9,0.00
2013-8-4,79.3,68.2,59.0,50.5,40.6,15.9,64,43,10,29.74,29.68,10,2,10,0.00
2013-8-11,77.2,72.5,69.8,49.2,45.5,39.7,47,39,26,29.83,29.80,5,0,6,0.00
2013-8-12,87.1,76.0,68.7,62.9,45.3,22.0,70,41,11,29.83,29.68,6,0,6,0.00
2013-8-13,84.2,72.5,65.7,65.2,51.9,40.5,79,51,24,29.68,29.50,8,1,8,0.00
2013-8-14,76.1,65.8,55.9,40.5,24.3,12.1,36,22,10,29.85,29.59,10,2,11,0.00
2013-8-15,78.8,64.0,50.2,40.9,26.4,11.7,56,29,10,29.97,29.85,6,0,6,0.00
2013-8-16,82.2,66.3,51.8,46.4,28.2,13.1,56,29,9,29.97,29.91,6,0,6,0.00
2013-8-17,84.2,69.3,55.4,50.6,31.2,14.6,59,30,8,30.06,29.97,6,0,6,0.00
2013-8-18,71.4,67.0,63.3,52.2,43.4,34.2,57,43,30,30.03,29.94,4,0,4,0.00
2013-8-19,77.9,67.7,60.1,54.0,47.7,43.7,67,50,31,29.94,29.83,6,0,6,0.00
2013-8-20,88.2,72.9,61.9,63.9,43.8,16.6,80,44,8,29.94,29.85,6,1,8,0.00
2013-8-21,91.4,74.2,59.0,60.6,43.4,24.5,66,39,9,29.97,29.83,6,0,6,0.00
2013-8-22,86.9,77.8,70.5,62.0,49.1,34.6,67,40,16,29.85,29.68,8,1,8,0.00
2013-8-23,81.1,70.9,61.7,56.8,45.4,28.4,62,42,17,29.88,29.71,4,0,5,0.00
2013-8-24,82.6,68.3,56.7,44.8,28.9,12.7,57,28,9,30.12,29.88,8,1,8,0.00
2013-8-25,84.9,68.0,52.7,51.7,28.9,14.9,60,29,8,30.18,30.03,8,1,8,0.00
2013-8-26,88.5,73.6,58.5,45.2,30.4,16.6,44,23,8,30.03,29.74,10,1,12,0.00
2013-8-27,90.0,78.9,68.9,53.0,39.7,24.2,51,28,10,29.74,29.65,8,1,8,0.00
2013-8-28,80.1,74.1,70.2,66.5,59.1,47.5,72,60,40,29.68,29.59,6,0,6,0.00
2013-8-29,84.9,76.7,70.0,58.8,51.5,46.8,60,42,30,29.80,29.77,4,0,4,0.00
2013-8-30,90.0,77.1,69.6,63.0,53.5,30.6,71,49,13,29.80,29.65,8,2,11,0.00
2013-8-31,89.8,77.4,69.1,64.6,56.2,42.2,72,51,20,29.68,29.56,8,1,8,0.00
2013-9-1,90.5,78.4,69.1,68.3,56.3,42.4,77,51,20,29.62,29.53,6,0,6,0.00
2013-9-2,91.8,78.3,70.2,69.1,54.6,30.2,79,50,12,29.59,29.50,13,1,17,0.00
2013-9-3,84.0,73.4,64.8,60.2,40.4,14.8,72,39,9,29.74,29.50,8,2,9,0.00
2013-9-4,84.0,69.2,56.7,46.2,29.7,13.9,56,27,9,29.85,29.74,8,1,9,0.00
2013-9-5,82.0,67.8,57.4,48.4,28.9,11.0,56,28,9,29.94,29.77,8,1,9,0.00
2013-9-6,74.1,61.7,50.0,27.8,19.1,11.8,36,21,11,30.06,29.94,6,1,7,0.00
2013-9-9,71.1,68.7,67.6,48.9,41.7,33.3,51,38,25,29.94,29.88,7,2,7,0.00
2013-9-10,93.4,80.1,67.6,61.6,47.4,24.7,66,38,9,29.94,29.83,9,2,10,0.00
2013-9-11,97.3,82.2,69.6,68.0,48.2,25.1,68,38,8,29.91,29.77,9,2,11,0.00
2013-9-12,87.6,75.2,68.9,64.5,54.8,39.2,66,51,21,29.77,29.53,8,0,8,0.00
2013-9-13,69.3,65.3,58.3,58.9,30.3,12.1,70,33,12,29.71,29.50,8,2,8,0.00
2013-9-14,66.7,56.8,47.3,32.3,22.9,11.1,43,28,12,29.97,29.71,10,2,10,0.00
2013-9-15,75.9,59.0,42.1,40.1,23.9,13.5,56,31,10,30.03,29.85,8,1,9,0.00
2013-9-16,60.3,58.9,57.9,44.7,37.8,31.6,57,46,34,29.88,29.83,4,0,4,0.00
2013-9-17,50.2,48.4,46.9,16.4,13.7,9.2,29,25,19,30.12,30.12,0,0,0,0.00
2013-9-18,73.4,54.8,40.6,39.4,19.0,7.1,54,28,11,30.12,29.97,6,1,8,0.00
2013-9-19,80.2,60.3,42.6,40.3,22.5,13.4,50,27,10,30.00,29.85,6,1,8,0.00
2013-9-20,82.4,64.9,50.0,51.4,29.7,14.9,60,32,9,29.91,29.74,8,1,8,0.00
2013-9-21,75.9,64.7,56.3,54.0,41.9,27.5,65,46,18,29.77,29.47,15,2,15,0.00
2013-9-22,70.9,61.2,53.4,50.6,33.5,9.0,76,43,12,29.74,29.50,11,1,11,0.00
2013-9-23,67.6,56.5,46.9,23.7,16.2,7.8,34,22,12,29.88,29.74,10,2,10,0.00
2013-9-24,74.7,55.4,40.3,32.3,19.5,8.4,51,28,11,29.91,29.74,8,1,8,0.00
2013-9-25,76.5,57.3,42.3,36.9,20.8,8.4,51,28,10,29.80,29.65,6,1,8,0.00
2013-9-26,50.7,49.5,48.7,25.5,23.9,21.0,40,36,31,29.74,29.74,0,0,0,0.00
2013-9-27,70.0,60.0,53.1,27.1,19.0,11.1,36,22,12,30.03,29.94,4,0,4,0.00
2013-9-28,76.1,61.2,51.1,43.6,27.6,10.6,52,32,10,30.12,30.00,6,1,6,0.00
2013-9-29,74.5,57.0,46.0,43.1,25.7,11.7,53,33,11,30.03,29.85,6,1,9,0.00
2013-9-30,53.1,49.8,47.7,34.9,29.4,27.0,53,45,37,29.88,29.85,0,0,0,0.00
2013-10-1,70.7,62.5,57.9,31.3,26.1,13.9,36,26,12,29.80,29.74,0,0,0,0.00
2013-10-2,86.7,67.7,52.2,48.9,29.8,14.4,59,30,8,29.85,29.74,11,1,11,0.00
2013-10-3,83.8,69.6,56.3,53.4,33.6,16.7,58,31,9,29.94,29.80,7,0,7,0.00
2013-10-4,88.5,71.1,59.7,56.4,40.2,16.6,62,39,8,29.88,29.77,8,1,9,0.00
2013-10-5,88.7,74.6,65.5,63.1,43.7,22.7,67,39,10,29.85,29.77,6,0,7,0.00
2013-10-6,85.3,73.2,66.0,59.0,47.4,28.1,67,43,13,29.83,29.71,9,1,11,0.00
2013-10-7,72.9,65.4,51.3,61.0,52.8,38.2,80,64,43,29.83,29.53,12,2,13,0.00
2013-10-8,69.6,55.4,44.8,46.8,28.2,8.4,73,42,12,30.09,29.83,8,1,8,0.00
2013-10-9,61.9,53.9,46.0,32.4,25.9,17.0,51,35,19,30.15,30.03,8,1,8,0.00
2013-10-10,57.7,55.6,51.4,50.9,39.9,27.6,80,57,35,30.03,29.80,12,2,12,0.00
2013-10-11,62.6,58.9,55.4,59.3,54.8,49.3,91,86,78,29.85,29.77,10,3,11,0.00
2013-10-12,72.9,64.4,58.8,57.9,36.4,14.4,85,43,11,30.00,29.83,8,2,10,0.00
2013-10-13,71.4,61.7,52.0,38.8,29.6,13.1,43,31,12,30.12,29.97,10,2,10,0.00
2013-10-14,70.2,57.1,48.2,42.3,29.9,16.2,61,38,15,30.15,30.00,6,0,6,0.00
2013-10-15,75.4,58.7,46.8,47.6,28.3,11.1,64,37,10,30.03,29.85,6,0,6,0.00
2013-10-16,67.8,60.6,52.7,46.2,39.3,28.3,59,46,36,29.88,29.71,5,0,5,0.00
2013-10-17,73.9,65.3,60.1,56.2,50.6,44.0,71,60,35,29.71,29.47,14,1,17,0.00
2013-10-18,65.5,56.4,43.7,48.2,20.9,5.6,62,28,13,29.80,29.56,13,2,14,0.00
2013-10-19,43.7,40.8,39.2,21.7,19.8,18.9,48,43,37,29.80,29.74,0,0,0,0.00
2013-10-20,62.4,52.8,40.5,28.6,12.5,2.0,54,21,14,29.88,29.77,10,2,12,0.00
2013-10-21,69.3,50.6,35.1,32.8,14.6,4.1,52,27,12,29.91,29.74,10,1,13,0.00
2013-10-22,61.2,49.2,38.8,35.4,17.9,-1.2,49,31,14,29.74,29.59,13,1,13,0.00
2013-10-23,55.2,44.6,37.4,24.0,12.6,3.7,42,29,15,29.62,29.47,8,1,8,0.00
2013-10-24,50.2,41.3,32.4,21.3,7.5,-4.4,50,27,14,29.88,29.62,13,2,17,0.00
2013-10-25,53.4,42.2,32.0,18.6,7.7,-2.6,42,25,16,30.06,29.88,13,2,13,0.00
2013-10-26,57.6,43.4,28.2,18.7,6.3,0.7,43,24,13,30.06,29.71,15,2,15,0.00
2013-10-27,57.7,45.7,34.2,16.4,3.9,-4.5,32,18,13,29.94,29.71,13,1,14,0.00
2013-10-28,61.9,44.1,29.8,22.4,7.4,-2.1,42,24,13,30.09,29.94,8,1,8,0.00
2013-10-29,62.6,46.3,34.9,24.2,12.3,2.5,45,27,13,30.18,30.09,9,1,9,0.00
2013-10-30,63.5,51.5,41.9,39.7,29.7,14.9,54,43,33,30.12,29.94,6,0,6,0.00
2013-10-31,65.3,58.5,47.7,52.0,45.0,31.9,71,61,44,30.00,29.56,13,2,13,0.00
2013-11-1,69.4,63.4,59.4,55.2,50.5,36.7,74,63,32,29.56,29.35,11,4,14,0.00
2013-11-2,65.7,57.2,44.4,33.5,13.6,6.5,37,18,13,29.65,29.47,10,2,10,0.00
2013-11-3,53.8,45.6,31.3,24.8,7.8,-7.3,38,22,13,30.27,29.65,11,3,12,0.00
2013-11-4,47.1,35.8,25.9,1.1,-4.3,-10.3,24,18,14,30.42,30.27,7,1,8,0.00
2013-11-5,58.8,46.5,32.9,23.8,11.8,-3.8,37,25,14,30.39,30.24,6,1,6,0.00
2013-11-6,66.2,55.6,48.7,35.8,25.7,15.8,50,34,15,30.24,29.83,10,2,10,0.00
2013-11-7,58.1,53.3,42.4,46.5,30.2,1.9,67,43,17,29.83,29.65,10,2,11,0.00
2013-11-8,50.0,41.0,32.4,13.1,0.6,-4.9,33,18,14,30.06,29.83,11,2,14,0.00
2013-11-9,54.1,38.7,27.0,12.9,2.8,-4.8,39,23,13,30.12,29.80,9,1,10,0.00
2013-11-10,58.1,43.5,29.1,25.6,6.0,-0.2,42,23,13,29.94,29.71,15,3,15,0.00
2013-11-11,53.2,46.6,33.4,8.6,2.5,-5.8,26,16,13,30.03,29.77,9,2,10,0.00
2013-11-12,50.9,37.6,27.5,10.5,-2.0,-10.4,31,18,14,30.15,29.77,12,3,14,0.00
2013-11-13,42.4,32.4,25.0,-0.6,-7.1,-11.4,19,17,16,30.21,30.12,10,2,13,0.00
2013-11-14,54.3,36.1,23.5,7.7,-2.8,-11.6,32,19,13,30.12,29.97,9,1,12,0.00
2013-11-15,57.2,39.4,25.7,9.8,-1.9,-11.0,23,17,13,30.06,29.97,5,0,5,0.00
2013-11-16,60.4,49.0,38.5,32.4,21.7,1.2,51,35,18,30.12,30.03,7,1,8,0.00
2013-11-17,60.8,55.6,49.6,51.7,42.5,32.3,73,61,51,30.03,29.50,9,2,11,0.00
2013-11-18,64.6,57.5,46.8,53.7,20.9,0.1,75,30,13,29.71,29.44,15,4,15,0.00
2013-11-19,49.3,42.3,34.5,2.1,-1.5,-5.8,17,15,14,30.15,29.71,13,3,14,0.00
2013-11-20,34.5,29.0,25.0,-3.7,-8.5,-11.1,23,19,17,30.36,30.15,4,0,5,0.00
2013-11-21,49.1,38.3,23.4,14.8,-0.1,-12.8,28,19,16,30.36,30.15,5,0,5,0.00
2013-11-22,52.5,48.6,45.1,37.8,27.2,14.0,61,44,28,30.15,29.77,9,0,11,0.00
2013-11-23,52.5,43.9,35.8,32.9,17.2,7.4,47,34,29,29.91,29.83,13,3,13,0.00
2013-11-24,26.1,24.1,22.1,-10.5,-12.0,-12.9,20,19,19,30.24,30.15,8,3,8,0.00
2013-11-25,33.8,27.3,18.9,-5.3,-9.9,-15.6,20,19,17,30.30,30.09,10,2,10,0.00
2013-11-26,44.1,34.1,32.0,31.0,4.3,-6.7,61,31,17,30.09,29.38,8,1,9,0.00
2013-11-27,48.7,40.4,37.9,36.7,30.6,27.5,73,68,57,29.38,29.29,11,3,11,0.00
2013-12-1,39.4,36.0,35.1,8.4,4.5,0.1,31,26,21,29.85,29.80,0,0,0,0.00
2013-12-2,47.1,38.8,33.6,15.4,11.4,7.2,40,32,27,29.80,29.65,4,0,4,0.00
2013-12-3,52.5,40.5,32.2,23.2,13.7,4.7,43,34,21,29.80,29.68,6,0,6,0.00
2013-12-4,53.8,44.3,32.5,26.6,19.9,9.2,47,38,28,29.88,29.77,4,0,5,0.00
2013-12-5,55.4,52.3,48.7,48.7,40.2,26.3,79,64,40,29.85,29.68,3,0,4,0.00
2013-12-6,57.6,46.9,35.8,52.8,40.8,29.5,84,79,73,29.94,29.65,6,1,8,0.00
2013-12-7,38.7,34.3,28.2,29.8,20.0,7.9,78,57,39,30.30,29.88,8,2,10,0.00
2013-12-8,28.8,27.1,25.7,15.0,6.6,1.2,57,42,31,30.33,30.09,7,2,7,0.00
2013-12-9,35.6,32.7,28.4,27.6,22.6,14.7,82,66,56,30.09,29.77,6,1,6,0.00
2013-12-10,34.0,28.9,15.4,29.4,22.3,6.1,87,76,60,29.94,29.71,8,0,8,0.00
2013-12-11,33.6,22.0,10.4,15.4,5.4,1.6,72,51,28,30.12,29.94,10,1,10,0.00
2013-12-12,27.9,23.3,16.2,7.6,-6.4,-16.9,46,28,18,30.15,29.94,10,2,10,0.00
2013-12-13,36.0,22.9,10.2,-2.8,-11.8,-21.1,34,21,17,30.06,29.91,13,1,13,0.00
2013-12-14,32.2,29.0,25.9,18.8,7.8,-5.6,63,42,24,30.12,29.50,12,2,12,0.00
2013-12-15,39.6,32.4,26.6,27.8,16.0,2.7,71,53,27,29.65,29.38,17,2,17,0.00
2013-12-16,31.1,25.3,19.2,7.3,-10.1,-15.3,36,20,18,29.94,29.65,12,3,12,0.00
2013-12-17,28.6,23.9,18.9,8.2,0.9,-12.5,47,37,19,29.94,29.71,5,1,5,0.00
2013-12-18,36.7,27.5,16.7,11.2,0.9,-6.5,54,34,17,29.94,29.74,11,2,12,0.00
2013-12-19,43.0,29.0,16.2,13.9,1.7,-5.8,43,31,18,29.91,29.80,5,0,5,0.00
2013-12-20,52.3,38.1,28.6,22.0,11.7,5.6,46,34,20,29.83,29.71,4,0,4,0.00
2013-12-21,58.3,43.7,34.3,30.8,22.0,13.7,51,42,31,29.74,29.62,5,0,5,0.00
2013-12-22,64.9,61.0,45.5,55.2,48.6,28.3,71,64,51,29.71,29.53,12,2,15,0.00
2013-12-23,56.3,49.1,36.1,51.2,36.7,12.6,86,64,37,29.91,29.65,10,2,11,0.00
2013-12-24,38.1,30.8,22.6,13.6,2.0,-12.9,46,30,18,30.12,29.85,13,3,13,0.00
2013-12-25,28.8,23.7,16.7,-8.6,-11.7,-16.5,26,20,18,30.24,30.06,8,2,8,0.00
2013-12-26,36.9,26.7,20.3,13.0,2.0,-12.2,44,34,21,30.06,29.88,6,1,6,0.00
2013-12-27,45.3,28.4,15.3,15.0,0.6,-8.2,52,33,15,30.06,29.97,10,1,10,0.00
2013-12-28,55.6,36.1,21.0,19.6,2.5,-6.4,43,26,13,29.97,29.77,11,1,11,0.00
2013-12-29,42.4,38.0,33.6,31.3,18.8,-1.0,70,48,22,29.77,29.21,8,1,9,0.00
2013-12-30,42.6,35.0,24.4,32.1,10.6,-9.4,70,40,20,29.83,29.44,11,2,11,0.00
2013-12-31,36.9,27.4,19.9,3.0,-7.4,-14.7,30,21,17,29.94,29.71,15,2,19,0.00
2014-1-1,35.4,28.0,17.8,6.9,-0.8,-16.0,33,28,20,30.03,29.80,5,1,6,0.00
2014-1-2,31.8,27.8,20.3,11.4,7.4,3.1,56,42,31,29.80,29.32,8,3,8,0.00